Starlink 30069

operational
NORAD ID: 56834 Int'l Des: 2023-079 Owner: SPXS Country: US Constellation: starlink
LEOCIRCULAR

About Starlink 30069

Description loading...

Live Position

Loading 3D Globe...

Upcoming Passes

Altitude History

Altitude vs Time

uPlot chart will show altitude changes over time

Two-Line Element Set

1 56834U 23079M 25260.22085976 -.00000698 00000-0 -35687-4 0 9999
2 56834 43.0016 329.6552 0001079 252.3046 107.7679 15.03347405126797
Epoch: Sep 17, 2025 • Age: 22 hours

Current Status

Altitude 556.4 km
Velocity 7.59 km/s
Sub-Earth Point 19.39°N, 67.02°W
Launch Date Jun 4, 2023
Age 2.2 years
Type internet

Technical Details

Classification Payload
Mass 730.00 kg
Dry Mass 700.00 kg
Total Mass 730.00 kg
Length 0.30 m
Diameter 4.10 m
Span 29.00 m
Shape Box + pan
Manufacturer SPXS
Bus Type Starlink V2M
Phase Status In Orbit
Owner/State SPXS/US

Large Constellations

Loading constellations...